Regional Weather Roundup
Issued by NWS

Home | Current Version | Previous Version | Graphics & Text | Print | Product List | Glossary On
Versions: 1 2 3 4 5 6 7 8 9 10 11 12 13 14 15 16 17 18 19 20 21 22 23 24 25 26 27 28 29 30 31 32 33 34 35 36 37 38 39 40 41 42 43 44 45 46 47 48 49 50
000
ASUS43 KLSX 161857
RWRMO

WEATHER SUMMARY FOR MISSOURI
NATIONAL WEATHER SERVICE SPRINGFIELD MO
200 PM CDT WED AUG 16 2017

NOTE: "FAIR" INDICATES FEW OR NO CLOUDS BELOW 12,000 FEET WITH NO
       SIGNIFICANT WEATHER AND/OR OBSTRUCTIONS TO VISIBILITY.
       CURRENT SKY AND/OR WEATHER CONDITIONS ARE NOT AVAILABLE FOR
       CHILLICOTHE AND FARMINGTON.

MOZ001>031-035>038-043-044-053-054-162000-
...NORTHERN AND WESTERN MISSOURI...

CITY           SKY/WX    TMP DP  RH WIND       PRES   REMARKS
KANSAS CTY INT MOSUNNY   84  73  69 SW9       29.80R HX  90
LEE`S SUMMIT   MOSUNNY   85  74  69 S9        29.82R HX  92
ST JOSEPH      SUNNY     83  72  69 W13G20    29.78S
CHILLICOTHE      N/A     83  76  79 S14G21    29.79F HX  91

$$
MOZ066>068-077>081-088>096-101>105-162000-
...SOUTHWEST MISSOURI...

CITY           SKY/WX    TMP DP  RH WIND       PRES   REMARKS
SPRINGFIELD    CLOUDY    84  74  71 S18       29.91R HX  91
JOPLIN         CLOUDY    77  76  96 N6        29.91R
BRANSON        PTSUNNY   84  75  74 SW5       29.96S HX  92

$$
MOZ032>034-039>042-045>050-055>058-069>072-162000-
...CENTRAL MISSOURI...

CITY           SKY/WX    TMP DP  RH WIND       PRES   REMARKS
COLUMBIA       NOT AVBL
JEFFERSON CITY LGT RAIN  83  79  88 E9        29.84F HX  94
ROLLA          CLOUDY    83  75  77 S12G20    29.93R HX  90
SEDALIA        CLOUDY    76  76 100 S9        29.85S
WARRENSBURG    MOSUNNY   79  72  78 SE8       29.81R

$$
MOZ051-052-059>065-162000-
...EAST CENTRAL MISSOURI...

CITY           SKY/WX    TMP DP  RH WIND       PRES   REMARKS
ST LOUIS INTL  CLOUDY    88  73  61 VRB5      29.91F HX  95

$$
MOZ072>076-082>087-097>100-106>115-162000-
...SOUTH CENTRAL AND SOUTHEAST MISSOURI...

CITY           SKY/WX    TMP DP  RH WIND       PRES   REMARKS
CAPE GIRARDEAU MOSUNNY   88  76  67 S15G21    29.93F HX  99
POPLAR BLUFF   PTSUNNY   86  79  79 S13       29.93F HX  99
WEST PLAINS    HVY RAIN  73  71  93 N6        29.98F FOG

$$



USA.gov is the U.S. government's official web portal to all federal, state and local government web resources and services.